Theta_e
310 313 315 316 316 317 319 319 320 320 319 319 319 319 319 319 319 320 321 321 321 325 325 325 324 325 325 328 333 330 334 335 336 338 336 337 336 337 336 338 339 338 337 337 337 338 337 334 335 337 340 337 338 339
304 306 311 314 315 315 316 317 318 318 318 317 319 319 318 319 318 319 321 321 321 321 325 325 323 324 324 324 324 328 329 335 333 338 337 337 337 336 339 336 335 337 337 339 337 339 338 336 338 337 336 338 339 339
301 302 304 305 309 313 315 316 317 317 317 317 318 317 318 318 318 318 319 320 320 322 325 325 325 323 320 320 323 326 330 329 332 331 334 335 338 335 335 335 336 335 334 337 339 338 338 337 336 336 335 338 338 338
302 301 301 302 304 307 312 316 316 317 317 316 315 315 317 317 318 318 318 319 319 321 326 325 322 324 322 321 320 323 325 326 327 329 333 335 335 331 334 335 335 336 337 339 339 338 337 337 336 335 336 337 336 335
301 301 302 301 301 302 306 310 312 314 315 314 313 314 316 317 318 318 318 319 319 321 327 325 324 320 321 322 322 323 323 324 327 330 332 334 331 331 331 331 333 331 336 335 339 337 341 339 336 335 335 336 334 332
300 301 300 301 302 301 301 302 303 305 309 310 311 313 315 317 318 318 322 321 321 320 322 326 322 322 323 322 324 324 324 324 326 327 328 327 327 329 332 333 332 330 331 331 332 333 335 335 334 334 335 334 331 331
301 300 300 300 301 302 302 301 302 303 304 306 309 312 315 316 317 318 322 321 319 318 322 327 326 324 323 324 325 325 325 326 326 326 326 327 327 326 331 333 330 330 333 335 335 333 335 333 334 333 333 331 330 331
300 301 300 300 300 301 301 302 302 302 303 303 306 312 315 316 318 318 319 318 319 319 321 327 326 326 324 325 326 324 326 325 325 326 326 326 327 327 329 329 329 330 334 335 334 334 334 335 332 331 330 329 330 329
300 300 300 300 300 300 300 301 302 302 302 303 307 313 316 317 319 320 320 319 319 320 325 326 329 330 327 326 326 325 326 328 326 326 326 326 327 328 329 332 332 333 335 335 333 332 332 333 332 330 329 329 330 329
300 300 300 300 300 300 300 301 302 302 302 304 311 317 321 320 319 319 320 321 320 322 322 325 325 329 326 327 327 327 327 328 329 330 327 328 328 332 334 333 334 333 332 334 334 333 333 332 332 330 329 329 330 330
300 300 300 300 301 300 300 301 302 305 308 314 318 321 320 319 320 322 324 325 325 325 324 325 324 326 324 329 328 328 329 329 329 331 331 331 332 336 333 333 331 332 332 332 332 333 332 333 332 331 330 329 329 330
300 300 300 300 300 300 300 301 305 309 313 315 317 318 318 319 320 325 326 326 327 328 326 327 328 325 324 323 329 330 330 331 331 333 333 333 338 335 334 334 334 333 332 332 332 332 331 331 330 331 331 330 329 329
299 300 300 300 300 300 300 301 306 309 313 316 317 317 322 322 324 325 328 328 330 328 329 329 331 328 325 325 330 333 333 331 331 334 332 339 334 334 334 333 332 331 330 329 328 325 327 328 327 329 331 330 329 329
300 300 300 300 300 301 302 302 306 310 314 315 318 317 324 324 326 326 326 327 325 326 327 328 330 328 327 328 331 332 332 333 332 332 336 336 335 334 332 332 329 326 325 325 323 322 325 323 325 326 327 327 329 331
301 300 300 300 301 302 303 304 308 312 314 315 319 324 323 323 323 324 325 326 326 327 328 330 329 328 329 329 328 328 330 331 332 335 335 331 332 331 329 327 326 326 326 326 326 324 324 324 323 325 325 327 329 329
300 300 300 302 302 303 303 306 309 313 314 316 319 323 323 324 324 324 326 327 326 325 327 327 329 330 330 329 329 328 329 331 334 333 330 329 329 328 327 325 325 326 328 329 325 326 328 326 326 324 325 326 324 324
299 300 301 302 303 303 306 310 312 313 315 319 320 321 323 323 324 325 324 323 322 323 325 327 329 328 327 329 330 331 333 332 329 331 330 328 324 323 323 323 323 322 322 323 324 323 325 324 325 324 325 326 326 326
300 301 302 303 306 309 310 312 314 314 316 317 320 322 323 323 324 324 324 322 322 323 323 326 326 329 330 330 332 329 328 327 329 329 327 326 324 323 324 325 322 323 325 325 323 324 325 326 325 324 325 325 325 324
301 303 304 307 309 311 311 312 313 317 317 317 319 320 323 323 321 320 323 322 323 322 322 323 326 328 329 328 328 327 327 327 326 325 323 322 321 321 324 326 326 325 326 325 325 324 325 324 324 323 323 323 323 324
302 305 308 309 310 311 313 312 312 315 317 318 319 321 322 322 319 318 320 321 321 321 320 322 325 325 327 326 324 323 320 321 320 320 324 324 324 324 324 324 324 323 323 323 324 321 322 322 321 320 320 321 323 323
305 307 309 310 310 311 312 313 314 315 316 318 318 318 318 318 318 320 318 320 319 320 322 322 322 324 323 324 324 323 324 323 322 321 323 324 323 323 321 318 317 315 315 314 314 314 314 315 315 314 316 318 318 319
307 308 309 310 310 311 313 314 316 315 317 317 317 315 317 319 319 320 319 321 320 322 321 321 323 323 322 323 323 324 323 322 321 320 319 317 315 315 313 312 311 311 311 310 310 310 311 310 308 307 309 309 309 310
308 308 309 310 312 312 313 313 316 316 318 318 316 318 320 320 319 319 322 322 322 318 319 321 321 322 322 321 319 319 319 319 317 315 313 312 312 309 309 309 308 307 307 306 306 306 306 305 306 306 306 306 306 306
308 309 312 312 313 313 314 315 316 317 318 318 319 320 320 320 319 320 323 321 320 319 320 321 321 319 318 319 319 317 315 314 313 310 308 308 307 306 306 306 305 304 303 304 304 304 304 304 302 302 303 302 301 301
309 309 311 310 313 314 316 317 317 318 319 319 319 320 320 319 320 322 321 320 318 318 319 319 320 318 317 316 315 315 312 310 309 306 305 305 305 305 304 304 303 302 301 302 302 301 301 301 301 301 300 299 298 299
308 311 312 313 314 316 317 317 318 319 319 319 319 318 319 320 321 321 319 318 318 317 317 316 315 314 311 311 310 308 308 305 304 304 302 302 302 302 302 302 302 301 300 300 300 300 300 299 299 299 299 299 297 296
313 314 312 312 313 315 316 316 316 316 318 318 319 319 319 319 319 317 315 315 314 312 311 311 312 310 307 305 303 303 303 302 301 300 300 300 300 301 301 301 300 299 298 298 297 297 298 297 297 297 297 297 296 295
311 312 314 314 315 315 314 315 315 316 316 318 318 319 318 318 316 313 312 312 311 309 306 306 304 302 301 301 301 302 302 301 300 299 299 299 299 299 299 299 298 298 298 297 296 296 296 296 296 296 296 296 295 295
314 315 315 315 315 313 313 313 315 316 316 319 318 316 314 313 312 312 309 307 306 305 304 303 302 301 301 300 300 300 300 300 301 301 300 300 300 299 298 298 298 298 298 298 296 295 295 295 295 296 296 296 295 295
314 314 314 313 315 316 315 315 316 316 315 315 313 312 312 311 310 309 307 306 307 306 305 304 303 302 302 301 301 300 300 300 300 300 300 300 299 299 299 298 298 298 298 298 297 298 297 297 297 297 297 297 296 296
312 312 314 314 314 313 312 313 313 314 314 313 313 311 311 311 310 311 311 310 308 307 306 305 303 302 302 302 302 302 302 301 300 300 300 300 300 300 299 299 298 298 297 297 297 297 297 297 297 297 297 297 296 296
314 314 315 315 314 313 312 312 312 312 311 311 312 311 309 309 308 307 307 307 307 306 304 304 304 304 303 302 302 302 301 301 301 301 301 301 301 301 300 299 299 298 298 298 297 297 297 297 297 297 296 296 296 295
314 314 315 314 314 313 312 311 311 311 312 311 310 311 311 311 310 308 305 306 307 306 305 304 304 303 303 303 303 302 302 302 301 299 298 298 297 297 298 299 299 298 297 297 298 298 297 297 296 296 296 296 296 295
Wind_Speed
13 12 7 6 5 5 5 6 6 7 8 11 12 11 11 10 7 4 5 6 2 6 14 9 4 4 4 2 4 8 4 3 4 4 4 5 6 3 4 3 3 5 4 5 4 6 12 10 8 7 5 4 5 3
10 12 14 12 10 9 9 10 9 9 9 13 13 12 11 10 8 5 2 7 8 7 11 15 19 20 17 12 8 4 5 3 5 3 1 2 3 3 3 7 3 4 3 5 4 2 3 6 3 2 1 2 4 6
7 10 12 13 14 13 12 11 10 9 10 11 11 11 11 10 9 6 6 7 8 7 14 7 2 2 5 15 13 4 2 4 3 3 4 3 1 3 5 2 0 3 1 3 3 6 3 4 4 2 3 4 8 11
6 8 10 12 13 15 15 13 11 11 10 9 10 10 10 9 8 7 6 5 4 5 5 1 4 3 7 7 10 15 2 4 5 5 2 2 1 2 2 3 5 5 4 2 4 2 2 5 5 6 8 11 15 15
7 9 9 10 11 12 13 14 15 14 14 11 10 10 10 8 7 7 9 8 7 4 6 10 13 0 2 4 10 13 12 5 4 2 2 1 1 2 0 2 5 6 1 5 4 6 2 3 7 9 13 16 17 17
9 8 8 8 10 11 13 12 13 15 15 12 11 10 10 8 6 5 3 2 3 6 4 3 4 1 3 4 10 11 10 6 3 2 1 1 1 4 3 4 2 3 2 3 2 2 2 2 6 10 15 18 16 14
9 9 9 9 10 10 11 13 14 15 15 14 12 10 8 8 5 3 1 2 3 1 3 5 2 2 2 8 8 8 8 4 4 2 5 4 4 4 5 8 5 2 3 4 5 4 3 7 6 13 17 16 15 14
10 10 9 10 9 11 12 13 15 14 13 12 11 9 7 7 7 4 8 8 4 3 4 3 2 4 3 7 7 7 7 6 5 3 3 6 2 5 5 6 8 5 2 1 4 3 4 6 12 14 16 16 16 13
9 10 9 9 9 10 14 11 12 10 9 9 8 6 6 4 2 5 3 4 8 3 4 3 3 4 1 4 4 6 5 5 3 4 4 2 5 5 2 3 4 1 1 4 3 4 5 7 12 14 15 16 14 12
10 8 8 10 9 9 13 11 6 6 7 7 6 2 4 4 5 7 1 3 3 5 5 5 2 2 3 6 5 5 4 2 4 3 4 4 8 3 4 7 6 3 1 6 4 5 6 6 8 12 14 14 12 12
8 8 8 9 9 11 14 9 4 7 7 7 4 2 5 6 5 3 4 5 5 4 6 6 6 5 1 4 3 2 2 2 4 4 3 4 3 4 5 4 2 5 5 5 6 7 6 5 4 6 9 11 12 12
7 8 8 7 9 11 13 5 7 10 7 7 6 6 7 3 3 4 4 4 5 2 5 4 2 5 3 1 4 4 3 3 3 5 3 3 4 6 8 11 13 13 15 18 17 16 13 10 7 4 2 6 9 10
6 7 7 8 8 10 10 4 10 11 8 6 4 3 4 4 2 5 7 4 3 6 4 3 4 3 4 4 2 3 4 2 1 4 3 4 10 8 8 9 11 10 11 14 14 12 14 14 13 9 4 2 3 6
5 6 6 8 8 7 5 4 11 11 5 4 4 3 4 4 5 4 3 3 5 1 1 3 4 4 3 5 1 3 2 2 3 3 4 4 6 5 8 10 13 13 12 14 15 12 8 6 8 3 4 5 4 3
5 6 6 8 5 3 5 5 13 9 4 3 3 4 5 1 2 3 3 5 5 3 3 3 4 4 4 3 3 2 3 4 0 3 3 7 7 10 12 12 12 11 11 13 12 10 9 7 6 6 6 5 4 3
4 5 4 3 5 6 5 11 13 3 2 2 4 3 6 6 6 3 2 3 5 11 3 3 2 2 2 1 5 3 3 1 3 4 10 13 11 8 10 10 10 9 8 7 6 6 5 7 7 8 7 6 5 5
2 2 3 5 2 8 14 11 5 2 2 3 2 2 2 1 4 5 2 0 2 6 3 6 3 1 1 3 3 2 3 3 6 11 11 12 10 10 9 9 10 12 14 12 8 9 8 8 9 9 9 9 10 10
2 1 1 7 12 13 10 3 3 0 2 2 2 3 1 1 2 4 3 4 4 5 2 3 6 3 1 2 3 5 10 9 8 8 8 7 5 7 4 1 3 6 10 10 10 8 6 8 9 10 11 12 13 12
1 1 7 9 11 5 3 3 2 2 1 2 0 1 1 4 8 7 4 4 4 7 8 3 2 2 3 5 13 12 11 11 12 9 8 7 5 3 3 4 4 6 7 7 7 6 6 7 8 10 11 12 13 13
2 6 7 10 5 2 2 1 3 1 3 2 3 2 2 4 3 2 2 5 7 4 4 3 3 8 10 10 12 12 11 11 9 11 4 6 8 7 7 7 6 7 6 7 6 9 9 9 11 12 12 14 14 15
8 7 7 5 2 2 2 1 1 1 1 2 4 4 4 3 1 3 3 6 3 4 3 1 6 11 11 10 9 8 8 6 5 4 4 7 8 7 8 9 8 9 8 9 10 11 13 13 14 15 15 15 16 16
7 5 2 2 2 2 1 0 1 1 0 5 6 2 3 4 4 5 6 3 4 6 4 6 8 9 11 13 12 11 10 11 12 11 10 9 8 6 8 10 11 10 10 11 12 12 13 13 15 16 15 16 16 16
3 3 2 4 1 1 2 1 1 3 3 9 8 4 4 6 4 4 4 5 6 5 6 8 10 11 14 13 13 14 13 12 12 10 9 8 7 7 7 8 10 11 11 11 12 11 12 14 15 15 15 15 15 17
5 2 2 2 3 1 1 2 2 2 4 5 5 3 3 3 4 3 4 4 6 8 10 8 8 11 12 13 13 12 11 10 10 9 8 7 8 8 7 8 9 10 11 10 11 11 12 13 15 16 16 16 17 19
2 3 2 2 2 2 1 1 1 1 3 3 3 3 2 2 2 3 3 3 8 7 6 7 9 11 12 11 10 10 8 7 7 8 9 9 7 6 6 7 8 12 12 11 11 12 13 14 15 16 16 17 19 19
2 2 3 2 1 1 2 1 3 3 3 3 3 1 2 2 3 4 3 6 7 8 8 8 10 11 12 9 7 4 4 6 8 8 9 9 9 8 7 8 8 11 12 11 11 12 13 13 14 15 15 17 19 19
2 4 3 3 2 2 4 4 4 4 2 3 2 2 2 3 4 3 4 8 13 14 14 14 11 10 8 6 6 7 7 7 6 8 8 9 10 9 9 8 9 8 10 12 12 12 12 13 13 15 16 16 17 18
3 4 4 3 3 5 2 2 2 2 1 1 1 3 3 4 3 2 8 15 14 15 14 11 8 9 8 8 7 7 6 7 8 8 10 11 11 10 10 8 7 14 8 12 13 12 11 12 13 14 15 16 17 17
2 2 2 7 5 3 2 2 1 1 1 2 3 3 3 4 11 19 23 20 16 11 8 8 9 9 10 10 10 9 8 7 8 7 7 7 7 9 9 8 9 8 7 8 12 14 14 11 13 13 15 16 17 17
6 7 4 4 4 5 7 7 7 7 7 7 12 19 21 20 22 19 18 14 7 6 6 7 6 6 6 7 8 9 9 8 7 6 6 6 6 6 8 8 8 8 8 8 8 10 14 12 13 13 15 16 17 17
4 5 3 5 5 10 15 17 18 18 20 21 20 26 19 15 9 7 4 5 5 5 5 4 5 5 5 5 4 3 3 3 4 5 5 4 5 6 7 8 8 8 9 9 10 11 13 13 13 14 14 15 16 17
4 4 7 4 5 10 12 12 13 16 17 19 16 16 14 11 10 7 5 5 4 4 4 4 3 2 2 2 2 3 4 3 5 6 7 8 8 9 9 9 10 10 10 10 11 12 13 13 13 13 14 14 15 16
5 10 11 9 4 4 5 5 4 4 5 4 4 5 4 3 3 4 6 5 3 2 2 3 3 3 1 2 2 4 6 5 5 6 7 9 10 9 9 7 8 10 11 11 11 12 13 14 13 13 13 14 15 15
Wind_Direction
258 254 262 258 260 260 259 264 266 281 296 318 325 325 325 330 333 314 294 305 292 286 290 270 261 266 303 285 322 358 272 185 232 225 238 163 225 164 227 64 225 223 232 211 238 256 245 142 144 220 61 99 80 84
262 256 250 255 260 267 270 265 266 276 292 301 311 313 317 321 325 311 299 293 291 267 265 281 273 262 251 255 294 314 340 325 2 258 170 198 177 187 3 230 170 239 319 332 280 45 98 172 51 109 345 137 140 133
271 264 261 258 253 254 264 262 265 278 279 287 298 303 307 312 315 305 281 287 313 293 301 275 274 269 243 226 220 272 10 343 28 359 351 28 68 314 228 207 191 181 212 263 269 146 166 186 203 204 167 162 141 136
288 277 263 259 258 255 246 257 259 267 274 283 288 293 304 313 312 308 289 272 292 291 285 116 340 338 275 226 213 214 288 6 357 349 345 20 301 331 32 33 284 37 176 207 246 176 201 191 187 173 154 142 136 131
301 297 284 266 257 256 249 251 254 258 264 269 276 283 297 306 310 306 293 277 258 229 317 301 300 263 253 207 202 202 212 263 341 327 261 81 73 249 162 274 237 184 138 244 30 41 338 38 179 169 160 151 144 139
312 307 306 299 280 257 253 250 247 251 255 258 264 273 284 297 307 322 269 340 225 202 292 287 343 196 325 215 185 187 196 215 234 274 297 225 17 287 263 251 49 212 248 297 334 24 328 322 172 167 164 155 149 144
288 294 290 299 303 286 257 250 250 249 251 254 255 260 275 291 289 245 283 251 185 79 276 287 243 168 127 133 149 159 178 195 227 237 239 283 223 251 262 255 190 303 297 280 253 230 210 192 195 166 160 154 148 143
272 276 290 295 296 299 288 254 255 260 256 250 246 250 266 285 287 275 248 245 233 265 259 279 264 186 170 172 142 163 165 184 200 273 232 246 172 232 253 258 265 272 264 140 144 235 260 173 158 161 160 156 153 148
287 274 278 286 287 295 302 278 257 260 252 231 227 241 274 238 199 223 235 212 204 199 293 252 280 116 183 161 136 163 197 209 147 240 223 228 216 223 45 331 312 277 162 159 102 111 121 144 155 167 170 173 172 163
274 260 278 285 290 293 302 293 248 230 216 198 184 160 181 195 176 158 93 151 187 215 233 260 275 229 292 182 163 159 195 239 232 147 142 227 244 98 356 312 281 230 170 150 173 125 118 134 159 173 184 186 186 178
265 268 268 280 286 293 301 294 197 164 166 159 172 190 190 158 148 204 207 220 174 223 211 237 248 269 75 257 170 229 156 171 246 132 240 181 173 59 6 31 96 141 125 112 99 82 81 86 138 173 191 197 196 193
254 261 268 268 279 293 302 302 171 153 166 182 174 141 145 174 207 225 204 178 222 232 172 227 162 213 215 256 248 175 228 190 256 129 233 222 83 83 72 82 95 104 102 90 79 71 61 56 64 62 163 218 208 214
278 259 265 274 277 286 293 256 178 163 161 162 175 159 190 187 172 221 188 189 205 170 170 199 190 192 190 216 236 220 219 205 142 212 203 55 114 86 74 88 90 88 84 84 80 74 54 37 35 24 2 326 222 226
308 285 273 280 279 280 298 255 177 168 174 175 178 173 229 198 222 191 188 95 64 241 278 306 202 203 164 191 182 194 92 230 250 252 73 99 101 64 72 89 88 78 75 76 66 52 46 12 354 316 299 348 2 277
311 284 273 282 255 254 269 233 166 175 172 209 205 194 218 268 147 124 122 128 33 331 265 211 210 215 159 166 225 162 205 232 352 87 95 98 82 94 91 86 83 76 68 62 61 59 56 46 30 8 352 355 2 6
327 302 255 245 274 266 218 167 160 167 212 229 235 230 191 201 151 130 99 131 29 21 314 243 198 194 141 242 190 191 213 75 84 97 132 123 111 88 70 58 48 35 24 19 32 31 19 5 358 352 351 342 336 321
320 222 283 302 251 145 143 138 158 204 192 247 229 221 262 156 144 129 116 23 64 46 352 309 201 149 335 216 146 35 54 70 130 132 131 123 112 86 77 29 25 9 1 350 358 358 355 340 335 337 333 317 310 302
172 280 339 136 129 130 139 139 163 300 303 268 229 141 105 20 82 88 95 91 165 160 119 322 309 207 121 124 101 104 94 100 135 125 118 97 81 92 107 193 262 284 308 329 333 337 342 341 343 341 341 332 326 311
190 109 147 135 137 125 136 196 166 218 164 171 149 225 225 96 86 69 69 85 108 118 104 297 317 5 66 67 113 112 109 106 113 108 110 97 78 70 33 16 8 1 9 12 20 7 354 358 354 349 343 342 338 336
140 136 106 122 134 101 142 162 151 249 163 144 168 157 101 75 53 18 82 129 104 83 64 11 352 62 111 102 98 102 110 116 109 100 117 67 55 48 46 50 34 23 11 6 358 346 357 346 347 347 341 339 334 327
127 134 119 113 98 86 133 120 152 109 105 142 123 77 25 42 38 169 156 158 64 41 95 209 95 88 85 85 90 95 96 98 97 88 77 74 61 57 50 43 32 26 19 11 3 356 360 355 349 343 337 331 324 327
125 131 124 19 67 45 79 223 132 158 149 133 137 177 210 193 184 146 137 116 61 46 66 98 84 84 80 75 77 87 91 90 84 82 77 81 67 54 37 26 22 17 8 4 1 354 351 345 342 344 340 330 334 329
104 116 42 33 9 58 116 33 219 177 181 147 157 232 164 150 147 143 85 75 90 61 98 103 101 103 99 88 85 89 90 91 86 83 72 67 47 35 27 20 16 15 11 3 2 356 351 349 345 350 346 345 338 332
50 49 20 18 8 38 241 205 197 225 136 166 176 161 127 115 147 95 88 75 74 90 97 108 103 99 89 87 84 80 71 69 72 66 56 40 38 33 29 23 23 20 15 5 4 3 357 355 356 358 357 353 353 351
349 33 5 351 13 305 249 127 200 191 134 127 136 120 91 98 102 79 82 84 89 114 114 107 105 102 99 94 83 78 75 53 41 35 35 36 32 29 30 31 23 23 19 20 10 9 8 7 5 5 3 359 357 357
50 55 14 9 166 305 32 70 40 58 53 78 40 52 116 76 62 71 60 97 103 100 95 99 101 102 93 94 89 61 38 36 48 47 38 40 46 49 45 40 32 20 20 19 16 15 13 11 7 9 7 2 355 1
31 57 348 39 347 342 79 65 53 45 52 39 4 77 69 67 57 61 64 124 127 115 106 101 96 90 82 66 51 47 53 60 74 77 67 57 53 52 51 45 34 28 18 21 16 15 11 8 7 8 10 7 5 6
351 357 11 38 75 57 79 41 49 45 301 321 335 50 57 43 82 72 106 115 113 107 101 90 89 85 81 78 79 79 82 77 82 72 63 57 54 50 46 37 22 26 20 16 25 16 15 12 10 7 6 3 359 360
91 16 54 45 53 52 8 14 358 30 51 268 102 79 84 66 122 124 115 110 104 100 88 82 80 79 80 78 78 81 80 80 82 81 71 58 43 34 32 29 28 27 25 358 351 6 19 21 16 14 7 1 359 355
41 32 65 15 9 42 33 40 59 62 71 92 113 110 103 110 120 111 115 113 104 99 90 77 81 86 92 87 83 78 73 74 76 71 58 46 35 22 13 10 7 4 3 360 354 350 353 4 353 352 352 355 352 358
39 32 55 40 65 77 86 83 82 88 96 101 110 113 114 119 124 133 127 117 117 99 83 80 83 93 93 88 77 58 39 29 36 43 33 14 357 349 345 348 347 345 344 347 346 346 346 348 346 346 345 348 350 354
41 41 103 94 105 102 87 68 71 76 88 96 105 119 124 116 119 134 133 123 118 100 88 74 80 103 120 105 41 16 6 339 323 327 326 327 320 314 321 329 331 331 327 327 333 334 339 342 342 344 347 346 348 350
102 104 112 102 116 102 88 91 68 68 70 97 136 163 156 136 141 157 184 167 136 116 91 74 79 87 101 85 359 343 337 319 301 319 336 339 335 325 309 305 318 322 328 324 319 325 330 332 332 332 336 339 341 342